Regional Weather Roundup
Issued by NWS Wakefield, VA

Home | Current Version | Previous Version | Text Only | Print | Product List | Glossary Off
Versions: 1 2 3 4 5 6 7 8 9 10 11 12 13 14 15 16 17 18 19 20 21 22 23 24 25 26 27

000
ASUS41 KAKQ 272215
RWRAKQ

REGIONAL WEATHER ROUNDUP
NATIONAL WEATHER SERVICE WAKEFIELD VA
600 PM EDT WED APR 27 2016

Note: "fair" indicates few or no clouds below 12,000 feet with no
significant weather and/or obstructions to visibility. * = Denotes
station may not report precipitation (e.g., rain,snow,etc.),
thunder or fog.

VAZ042-051-052>054-056-272300-
NORTHERN VIRGINIA

CITY           SKY/WX    TMP DP  RH WIND       PRES   REMARKS
WASH NATIONAL  CLOUDY    56  50  80 E8        29.91S
DULLES         CLOUDY    56  50  80 E5        29.90S
FORT BELVOIR   CLOUDY    56  51  82 VRB2      29.90S
QUANTICO       CLOUDY    59  53  80 E8        29.90S
FREDERICKSBRG* LGT RAIN  58  55  90 NE7       29.88S
STAFFORD*      RAIN      56  53  91 E5        29.93S
WARRENTON      CLOUDY    59  51  72 E6        29.89R
CULPEPER*      CLOUDY    60  55  83 CALM      29.90R
MANASSAS*      CLOUDY    57  54  88 E5        29.89S
LEESBURG*      CLOUDY    59  55  88 E3        29.91R
WINCHESTER     CLOUDY    55  50  82 N5        29.90R HAZE
FRONT ROYAL*   CLOUDY    59  54  82 N5        29.88R
LURAY*         MOCLDY    63  55  77 NE5       29.86R
$$

VAZ048-049-060>072-079>083-272300-
CENTRAL AND SOUTH CENTRAL VIRGINIA

CITY           SKY/WX    TMP DP  RH WIND       PRES   REMARKS
RICHMOND       PTSUNNY   63  57  81 NE12      29.85R
CHESTERFIELD*  CLOUDY    66  50  55 N8        29.85S
PETERSBURG*    LGT RAIN  73  61  65 N14       29.82S
HANOVER        CLOUDY    61  55  81 MISG      29.87S
TAPPAHANNOCK*  CLOUDY    60  56  87 NE7       29.89S
QUINTON*       MOCLDY    64  58  79 N6        29.84S
CHARLOTTSVILLE LGT RAIN  61  58  90 NE9       29.85S FOG
GORDONSVILLE*  CLOUDY    60  59  98 NE7       29.85S FOG
ORANGE*        LGT RAIN  61  59  94 NE7       29.88S
LOUISA*        FAIR      66  61  82 E10       29.85R
BUMPASS*       CLOUDY    62  57  84 E6        29.86S
FARMVILLE*     PTSUNNY   77  64  65 NE6       29.79F
CREWE*         CLOUDY    74  69  86 NE6       29.80F
FORT PICKETT*  NOT AVBL
CHASE CITY*    CLOUDY    69  67  94 CALM      29.82S
CLARKSVILLE*   CLOUDY    66  66 100 N5        29.81R
SOUTH HILL*    CLOUDY    75  63  66 NW7       29.85R
LAWRENCEVILLE* FAIR      80  62  53 CALM      29.78S
EMPORIA*       FAIR      81  61  50 CALM      29.79S
$$

VAZ088>098-272300-
SOUTHEAST VIRGINIA

CITY           SKY/WX    TMP DP  RH WIND       PRES   REMARKS
NORFOLK        CLOUDY    56  51  84 NE14      29.86S
VIRGINIA BEACH CLOUDY    59  52  77 NE13      29.85S
NORFOLK NAVAL  CLOUDY    57  53  86 E17G23    29.88R
WEST POINT*    CLOUDY    62  55  77 NE8       29.87S
SALUDA*        CLOUDY    58  55  91 NE5       29.88R
NEWPORT NEWS   CLOUDY    60  55  83 E13G23    29.86S
LANGLEY AFB    CLOUDY    59  55  85 E15       29.86S
FORT EUSTIS    PTSUNNY   64  55  72 E8        29.83R
WILLIAMSBURG*  FAIR      70  59  68 E5        29.85R
HR EXEC AP*    FAIR      64  55  72 NE13      29.87R
FRANKLIN*      PTSUNNY   69  58  68 NE12      29.81S
US460-WAKEFLD  FAIR      70  58  65 E8        29.82S
$$

VAZ020-022-025-037-045-272300-
WEST CENTRAL AND SOUTHWEST VIRGINIA

CITY           SKY/WX    TMP DP  RH WIND       PRES   REMARKS
STAUNTON*      PTSUNNY   69  66  90 NE5       29.86S
WAYNESBORO*    MOCLDY    65  62  91 MISG      29.85S
HOT SPRINGS VA NOT AVBL
LYNCHBURG      LGT RAIN  72  63  73 W3        29.84R
DANVILLE       CLOUDY    68  67  96 CALM      29.82R
SOUTH BOSTON*  CLOUDY    67  66  95 CALM      29.82S
MARTINSVILLE   PTSUNNY   69  64  85 N6        29.85S
ROANOKE        PTSUNNY   72  65  78 E6        29.85S
BLACKSBURG     FAIR      71  61  70 CALM      29.90R
DUBLIN*        CLOUDY    71  63  75 CALM      29.88S
MARION*        PTSUNNY   72  56  57 W9G17     29.91R
HILLSVILLE*    RAIN      64  60  88 SE5       29.89R
RICHLANDS*     LGT RAIN  68  42  39 NW3       29.91R
WISE*          CLOUDY    70  54  56 NE5       29.91S
ABINGDON*      FAIR      77  59  53 CALM      29.86S
$$

MDZ021>025-VAZ099-100-272300-
SOUTHERN MARYLAND AND THE DELMARVA PENINSULA

CITY           SKY/WX    TMP DP  RH WIND       PRES   REMARKS
PATUXENT RIVER CLOUDY    56  50  80 E6        29.90R
BAY BRIDGE APT NOT AVBL
LEONARDTOWN    CLOUDY    54  50  87 NE3       29.92R
DOVER          CLOUDY    53  48  82 VRB2      29.92R
GEORGETOWN     CLOUDY    52  44  74 E8        29.93R
EASTON         CLOUDY   N/A N/A N/A E6        29.96R
CAMBRIDGE      CLOUDY    52  48  87 E6        29.91R
SALISBURY      CLOUDY    53  47  79 NE12      29.91R
OCEAN CITY     CLOUDY    51  45  79 E10       29.92R
WALLOPS ISLAND CLOUDY    53  50  89 NE16      29.91S
ACCOMACK*      CLOUDY   N/A N/A N/A E9        29.88S
$$

NCZ012>017-030>032-272300-
NORTH CENTRAL AND EASTERN NORTH CAROLINA

CITY           SKY/WX    TMP DP  RH WIND       PRES   REMARKS
ROANOKE RAPIDS LGT RAIN  77  64  65 CALM      29.77F
RALEIGH        MOSUNNY   84  59  42 SW14      29.78F
ELIZABETH CITY SUNNY     64  58  80 NE17      29.83R
AHOSKIE*       CLOUDY    82  63  52 CALM      29.78F
EDENTON*       MOSUNNY   81  64  56 SE16      29.80S
CURRITUCK*     CLOUDY    60  56  88 NE10G17   29.86R FOG
KILL DEVIL HLS SUNNY     66  58  74 NE7       29.83R
MANTEO         NOT AVBL
CAPE HATTERAS  SUNNY     73  65  75 SW13G23   29.85F
TARBORO*       MOCLDY    87  61  41 SW7       29.79R
GOLDSBORO      SUNNY     86  59  39 SW14      29.77F
WASHINGTON     MOSUNNY   85  60  41 SW8       29.78S
GREENVILLE     MOSUNNY   86  59  39 SW7       29.81S
NEW BERN       SUNNY     81  64  56 S15       29.83S
WILMINGTON     SUNNY     79  58  48 S18G25    29.86R
$$

VAZ048-272300-
ELSEWHERE

CITY           SKY/WX    TMP DP  RH WIND       PRES   REMARKS
HARRISBURG PA  CLOUDY    53  48  83 CALM      29.91S FOG
BALTIMORE      CLOUDY    55  47  74 E6        29.91R
ANNAPOLIS      CLOUDY    54  49  83 E6        29.92R
ANDREWS AFB    CLOUDY    54  49  84 E7        29.90R
PHILADELPHIA   CLOUDY    53  44  71 SW6       29.93S
HENDERSON NC   SUNNY     70  65  84 N5        29.81R
GREENSBORO     CLOUDY    77  59  53 N8G18     29.80R
ROCKY MOUNT    MOSUNNY   84  60  44 SW14      29.78S
$$

VAZ100-272300-
MARINE

STATION/POSITION TIME  TEMP    WIND        PRES    WAVE   SWELL
                       AIR SEA DIR/SP/G            HT/PER HT/PER
                 (UTC) (F)     (DEG/KT/KT) (MB)    (FT/S) (FT/S)
BRANDYWINE LGT   2100           90/  9/ 10 1013.2S
CAPE MAY NJ      2100   51 59   60/  7/  9 1012.8S
LEWES DE         2100      56   80/ 11/ 14 1013.1R
15NM E FENWICK I 2150   50 52              1013.0R   5/ 6
OCEAN-CITY-INLET 2100   51 54   70/  6/  9 1012.3R
WACHAPREAGUE VA  2100   54 66   60/ 14/ 17 1011.7F
THOMAS POINT MD  2200   53 58   60/  6/  7 1014.3R
GOOSES REEF MD   2200   54 59   70/  6/  8 1013.9R   1
COVE POINT MD    2100   54      70/  6/  8 1012.8S
SOLOMONS ISLAND  2100   55 60   70/  6/  8   N/A
BISHOPS HEAD MD  2100   55 64   70/  7/  8 1011.6S
PINEY POINT MD   2100          100/  6/  9   N/A
POTOMAC MD       2200   56 59   60/  8/ 10 1011.2R   1
CAMBRIDGE MD     2100   53 63   40/  9/ 11 1011.8S
LEWISETTA VA     2100   56 62   90/  8/ 10 1011.7F
RAPPAHANNOCK LGT 2100           70/  7/  8 1011.9S
STINGRAY PT      2200   58 63   50/ 12/ 14 1011.9S   2/ 3
YORK RVR RNG VA  2100   58      90/ 11/ 12 1010.4F
YORKTOWN VA      2100   60 61   80/ 13/ 15 1010.8S
JAMESTOWN VA     2200   65 69  100/  8/ 14   N/A
DOMINION TERM VA 2100   59      90/  3/ 10 1010.9F
KIPTOPEKE VA     2100      61   70/ 12/ 17   N/A
CHES BAY BRIDGE  2100   53 57   50/ 16/ 17 1010.7F
CAPE HENRY VA    2100   53      70/ 13/ 15   N/A
CHESAPEAKE LGHT  2100   53      50/ 15/ 15 1012.0R
WILLOUBY STN VA  2100   56      80/ 15/ 17 1011.8F
CAPE HENRY BUOY  2142      58                N/A     4/ 6
CAPE CHARLES BUO 2156      57                N/A     3/ 6   2/ 6
OFFSHORE WE BUOY 2151      56                N/A     4/ 7   3/ 7
64NM E OF VA BCH 2150   54 55   40/ 10/ 12 1010.9R   4/ 7   3/ 7
DUCK PIER NC     2100   57 58   20/ 14/ 16 1009.9R
44100 DUCK FRF   2154      59                N/A     4/ 6
44056 DUCK FRF   2141      58                N/A     3/ 5
OREGON INLET NC  2100   71 71  190/ 17/ 20 1009.7R
HATTERAS NC      2100   72 66  210/ 12/ 18 1010.7S
DIAMOND SHLS NC  2150   73 71  220/ 17/ 19 1011.3R   4/ 5   2/11
CAPE LOOKOUT NC  2200   71     210/ 12/ 16 1011.1R
$$




USA.gov is the U.S. government's official web portal to all federal, state and local government web resources and services.